Location: Biharia
(46.4333°N, 22.8000°E)
Time: 21:52:24
(UTC+00:00)

Cosmos 1269 Rocket - Pass Details

Date: 16 October 2021
Orbit: 773 x 778 km, 74.1° (Epoch: 29 November)

Event Time Altitude Azimuth Distance (km) Brightness Sun altitude
Rises 17:23:20 0° 339° (NNW) 3,270 7.6 -18.5°
Reaches altitude 10° 17:25:45 10° 341° (NNW) 2,337 6.8 -18.9°
Maximum altitude 17:31:03 75° 67° (ENE) 808 3.9 -19.8°
Enters shadow 17:34:03 26° 149° (SSE) 1,477 5.1 -20.3°
